Flag for Germany Weather past 2 weeks in Pfaffenhofen an der Ilm, Bavaria, Germany

Now
52 °F

Passing clouds.


Feels Like: 52 °F
Forecast: 46 / 69 °F
Wind: 1 mph from North

Location: Ingolstadt Airport

Current Time: Aug 23, 2014 at 1:37:34 AM

Latest Report: Aug 23, 2014 at 12:20 AM


Visibility: N/A

Pressure: 29.98 "Hg

Humidity: 88%

Dew point: 48 °F

Location of Pfaffenhofen an der IlmLocation

Historic Weather in Pfaffenhofen an der Ilm — Graph

°F

Pfaffenhofen an der Ilm temperature yesterday

Maximum temperature yesterday: 68 °F (at 3:20 PM)
Minimum temperature yesterday: 46 °F (at 3:20 AM)
Average temperature yesterday: 57 °F

Past Weeks' High & Low Weather Summary

 TemperatureHumidityPressure
High84 °F (Aug 10, 5:20 PM)100% (Aug 8, 4:20 AM)30.15 "Hg (Aug 8, 4:20 AM)
Low46 °F (Aug 22, 3:20 AM)40% (Aug 21, 4:20 PM)29.68 "Hg (Aug 13, 3:20 PM)
Average62 °F75%29.96 "Hg
* Reported Aug 8 12:20 AM — Aug 23 12:20 AM, Pfaffenhofen an der Ilm, Weather by CustomWeather, © 2014

Note: Actual official high and low records may vary slightly from our data, if they occured in-between our weather recording intervals... More about our weather records

Advertising

Pfaffenhofen an der Ilm weather history for previous 24 hours

 ConditionsComfort  
Time TempWeatherWind HumidityBarometerVisibility
12:20 AM
Aug 23
52 °FPassing clouds.1 mph88%29.98 "HgN/A
11:20 PM
Aug 22
52 °FPassing clouds.2 mph94%30.01 "HgN/A
10:20 PM54 °FPassing clouds.2 mph94%29.98 "HgN/A
10:00 PM55 °FPassing clouds.2 mph88%29.98 "HgN/A
9:20 PM57 °FCool.1 mph82%29.98 "Hg2 mi
8:20 PM63 °FMild.2 mph64%29.95 "Hg2 mi
7:20 PM68 °FPassing clouds.7 mph46%29.95 "HgN/A
6:20 PM68 °FPassing clouds.7 mph46%29.95 "HgN/A
5:20 PM68 °FScattered clouds.6 mph43%29.95 "HgN/A
4:20 PM68 °FPartly sunny.6 mph46%29.98 "HgN/A
3:20 PM68 °FBroken clouds.13 mph43%29.98 "HgN/A
2:20 PM66 °FScattered clouds.10 mph52%29.98 "HgN/A
1:20 PM64 °FPartly sunny.5 mph60%30.01 "HgN/A
1:00 PM64 °FPartly sunny.5 mph60%30.01 "HgN/A
12:20 PM63 °FPartly sunny.2 mph64%30.01 "HgN/A
11:20 AM59 °FPartly sunny.3 mph72%30.04 "HgN/A
10:20 AM57 °FPartly sunny.3 mph77%30.01 "HgN/A
9:20 AM54 °FPartly sunny.2 mph88%30.01 "HgN/A
8:20 AM52 °FScattered clouds.2 mph88%30.01 "HgN/A
7:20 AM48 °FScattered clouds.1 mph94%30.01 "HgN/A
6:20 AM48 °FPassing clouds.3 mph94%30.01 "HgN/A
5:20 AM48 °FPassing clouds.2 mph94%30.01 "HgN/A
4:20 AM48 °FCool.2 mph94%30.01 "Hg2 mi
3:20 AM46 °FCool.2 mph93%30.01 "Hg2 mi
2:20 AM48 °FCool.No wind100%30.01 "Hg2 mi
1:20 AM50 °FCool.1 mph88%30.04 "Hg2 mi
Weather by CustomWeather, © 2014

See weather overviewHow to use our weather pages